Location: Coffee Creek Observatory
(38.8077°N, 94.7179°W)
Time: 03:38:43
(UTC-05:00)

Amateur Radio Satellites - All Passes

Search period start: 21 April 2014 03:08
Search period end: 22 April 2014 03:08
Location: Coffee Creek Observatory, 38.8077°N, 94.7179°W

Satellite Date Start Highest point End Downlink Frequencies (MHz)
Time Altitude Azimuth
TMSAT-1 21 Apr 03:13:37 03:14:55 11° 89° (E) 03:16:13 436.925 FM
Uribyol 2 21 Apr 03:20:08 03:25:18 68° 102° (ESE) 03:30:27 436.500 FM
KITSAT 1 21 Apr 03:31:45 03:39:52 80° 300° (WNW) 03:48:03 435.175 FM
AO-27 21 Apr 04:01:24 04:06:24 51° 288° (WNW) 04:11:24 436.795 MHz FM
AO-Echo 21 Apr 04:01:42 04:06:23 59° 286° (WNW) 04:10:59 ?
Gurwin Techsat 1B 21 Apr 04:03:05 04:08:16 51° 100° (E) 04:13:24 435.225 FM
ITAMSAT 1 21 Apr 04:11:47 04:16:37 42° 290° (WNW) 04:21:27 435.822 SSB
Oscar 19 21 Apr 04:13:32 04:17:28 22° 295° (WNW) 04:21:23 437.125 CW, 437.150 USB
JAS-1B 21 Apr 04:15:05 04:19:27 22° 95° (E) 04:23:59 435.800 - 435.900 CW/SSB
Uosat F 21 Apr 04:22:32 04:25:57 18° 93° (E) 04:29:20 435.120 FM
Oscar 16 21 Apr 04:22:35 04:25:56 18° 297° (WNW) 04:29:16 437.025 USB, Beacon 2401.1428
OPAL 21 Apr 04:24:51 04:28:15 18° 265° (W) 04:31:42 ?
AO-7 21 Apr 04:47:29 04:54:17 27° 95° (E) 05:01:03 29.400 - 29.500 MHz
TMSAT-1 21 Apr 04:50:07 04:55:26 82° 285° (WNW) 05:00:43 436.925 FM
Uribyol 2 21 Apr 05:01:22 05:04:11 15° 298° (WNW) 05:07:00 436.500 FM
KITSAT 1 21 Apr 05:30:44 05:36:36 21° 322° (NW) 05:42:30 435.175 FM
Gurwin Techsat 1B 21 Apr 05:44:05 05:47:49 20° 296° (WNW) 05:51:33 435.225 FM
Uosat F 21 Apr 06:00:11 06:04:58 47° 289° (WNW) 06:09:43 435.120 FM
JAS-1B 21 Apr 06:05:02 06:10:21 43° 290° (WNW) 06:15:55 435.800 - 435.900 CW/SSB
RS-15 21 Apr 06:06:09 06:16:09 37° 107° (ESE) 06:25:48 29.354 - 29.394 USB, Beacon 29.352 USB
TMSAT-1 21 Apr 06:34:02 06:34:28 10° 301° (WNW) 06:34:55 436.925 FM
AO-7 21 Apr 06:39:20 06:47:30 63° 293° (WNW) 06:55:40 29.400 - 29.500 MHz
STRAND 1 21 Apr 07:03:48 07:08:54 73° 74° (ENE) 07:14:00 ?
MaSat-1 21 Apr 07:18:45 07:21:49 73° 66° (ENE) 07:25:29 437.345 MHz
JAS-2 21 Apr 07:25:32 07:29:47 22° 95° (E) 07:34:21 435.800 - 435.900 CW/SSB, 435.910 FM
AO-40 21 Apr 07:28:53 09:17:09 16° 122° (ESE) 10:20:56 Beacon 2401.320
Hamsat 21 Apr 07:35:16 07:39:39 84° 102° (ESE) 07:44:01 145.90 MHz
SO-67 21 Apr 07:47:35 07:49:56 17° 94° (E) 07:52:16 435.3500 MHz FM
RS-15 21 Apr 08:16:46 08:27:55 61° 307° (NW) 08:38:47 29.354 - 29.394 USB, Beacon 29.352 USB
PCSat 21 Apr 08:25:24 08:28:04 14° 42° (NE) 08:30:42 145.825 MHz
PANSAT 21 Apr 08:25:51 08:27:41 13° 167° (SSE) 08:29:30 not established
AO-7 21 Apr 08:35:07 08:38:39 13° 313° (NW) 08:42:12 29.400 - 29.500 MHz
STRAND 1 21 Apr 08:46:47 08:48:35 12° 270° (W) 08:50:23 ?
HO-68 21 Apr 09:07:39 09:11:52 16° 91° (E) 09:16:03 435.675 MHz FM
JAS-2 21 Apr 09:09:49 09:15:01 47° 288° (WNW) 09:20:45 435.800 - 435.900 CW/SSB, 435.910 FM
SO-67 21 Apr 09:20:11 09:23:04 24° 289° (WNW) 09:25:55 435.3500 MHz FM
Sapphire 21 Apr 09:22:31 09:27:23 33° 53° (NE) 09:32:14 437.095 MHz 1200 baud AX-25 AFSK
KITSAT 1 21 Apr 09:33:12 09:36:17 12° 25° (NNE) 09:39:21 435.175 FM
PANSAT 21 Apr 10:04:36 10:07:14 18° 180° (S) 10:09:53 not established
PCSat 21 Apr 10:06:54 10:12:21 81° 62° (ENE) 10:17:46 145.825 MHz
Saudisat 1A 21 Apr 10:18:14 10:21:46 23° 112° (ESE) 10:25:19 436.775 MHz
RS-15 21 Apr 10:35:13 10:43:10 22° 336° (NNW) 10:51:04 29.354 - 29.394 USB, Beacon 29.352 USB
FUNcube-1 21 Apr 10:50:18 10:52:46 15° 93° (E) 10:55:14 145.950 - 145.970 MHz USB
Oscar 11 21 Apr 10:53:00 10:57:17 53° 100° (E) 11:01:32 145.825 FM, Beacon 2401.500 USB
HO-68 21 Apr 10:53:05 11:00:17 83° 287° (WNW) 11:07:28 435.675 MHz FM
Sapphire 21 Apr 11:05:56 11:10:46 34° 251° (WSW) 11:15:33 437.095 MHz 1200 baud AX-25 AFSK
KITSAT 1 21 Apr 11:26:42 11:34:18 41° 50° (NE) 11:41:49 435.175 FM
PANSAT 21 Apr 11:44:59 11:46:48 13° 193° (SSW) 11:48:37 not established
PCSat 21 Apr 11:52:59 11:55:00 12° 258° (WSW) 11:57:00 145.825 MHz
Saudisat 1A 21 Apr 11:57:04 12:01:11 35° 308° (NW) 12:05:18 436.775 MHz
FUNcube-1 21 Apr 12:25:18 12:29:22 44° 287° (WNW) 12:33:30 145.950 - 145.970 MHz USB
Oscar 11 21 Apr 12:30:50 12:33:00 14° 295° (WNW) 12:35:11 145.825 FM, Beacon 2401.500 USB
Oscar 10/S400 21 Apr 12:41:26 14:19:19 37° 257° (WSW) 18:37:52 145.825 - 145.975 CW/USB, Beacon 145.810 USB
HO-68 21 Apr 12:42:58 12:46:55 16° 306° (NW) 12:50:52 435.675 MHz FM
RS-15 21 Apr 12:54:37 13:01:28 18° 13° (NNE) 13:08:20 29.354 - 29.394 USB, Beacon 29.352 USB
Uribyol 2 21 Apr 13:02:06 13:03:17 11° 59° (ENE) 13:04:27 436.500 FM
KITSAT 1 21 Apr 13:22:09 13:29:44 46° 250° (WSW) 13:37:16 435.175 FM
AO-Echo 21 Apr 13:36:17 13:39:42 18° 65° (ENE) 13:43:03 ?
AO-27 21 Apr 13:40:01 13:44:10 25° 66° (ENE) 13:48:20 436.795 MHz FM
Oscar 19 21 Apr 13:49:04 13:54:04 55° 72° (ENE) 13:59:07 437.125 CW, 437.150 USB
ITAMSAT 1 21 Apr 13:49:48 13:54:15 30° 68° (ENE) 13:58:42 435.822 SSB
Oscar 16 21 Apr 13:57:37 14:02:43 72° 74° (ENE) 14:07:53 437.025 USB, Beacon 2401.1428
TMSAT-1 21 Apr 14:32:14 14:35:33 17° 63° (ENE) 14:38:52 436.925 FM
Uribyol 2 21 Apr 14:36:47 14:41:57 88° 75° (ENE) 14:47:09 436.500 FM
ISS 21 Apr 14:44:51 14:48:04 49° 137° (SE) 14:51:19 145.800 FM
OPAL 21 Apr 14:57:01 14:59:51 15° 93° (E) 15:02:40 ?
JAS-1B 21 Apr 14:59:05 15:04:48 23° 64° (ENE) 15:09:52 435.800 - 435.900 CW/SSB
SO-50 21 Apr 15:02:19 15:06:24 36° 115° (ESE) 15:10:31 436.795 FM
RS-15 21 Apr 15:07:34 15:17:52 44° 46° (NE) 15:28:20 29.354 - 29.394 USB, Beacon 29.352 USB
AO-Echo 21 Apr 15:12:54 15:18:02 55° 260° (W) 15:23:04 ?
AO-27 21 Apr 15:18:40 15:23:28 38° 262° (W) 15:28:17 436.795 MHz FM
Gurwin Techsat 1B 21 Apr 15:22:53 15:28:09 71° 74° (ENE) 15:33:27 435.225 FM
ITAMSAT 1 21 Apr 15:29:06 15:33:39 31° 263° (W) 15:38:13 435.822 SSB
Oscar 19 21 Apr 15:30:35 15:33:44 16° 268° (W) 15:36:55 437.125 CW, 437.150 USB
Uosat F 21 Apr 15:34:37 15:38:32 23° 66° (ENE) 15:42:27 435.120 FM
Oscar 16 21 Apr 15:40:38 15:42:35 12° 270° (W) 15:44:33 437.025 USB, Beacon 2401.1428
AO-7 21 Apr 15:45:15 15:52:27 35° 60° (ENE) 15:59:39 29.400 - 29.500 MHz
TMSAT-1 21 Apr 16:09:44 16:14:57 60° 259° (W) 16:20:12 436.925 FM
ISS 21 Apr 16:22:16 16:24:58 22° 334° (NNW) 16:27:41 145.800 FM
OPAL 21 Apr 16:33:57 16:39:08 64° 289° (WNW) 16:44:16 ?
SO-50 21 Apr 16:43:21 16:47:02 25° 312° (NW) 16:50:45 436.795 FM
JAS-1B 21 Apr 16:46:58 16:55:04 65° 257° (WSW) 17:01:49 435.800 - 435.900 CW/SSB
Gurwin Techsat 1B 21 Apr 17:06:11 17:08:36 13° 270° (W) 17:11:01 435.225 FM
UOSAT-12 21 Apr 17:12:21 17:16:36 41° 115° (ESE) 17:20:57 437.025 FM, 437.400 FM
Uosat F 21 Apr 17:12:24 17:17:04 39° 262° (W) 17:21:46 435.120 FM
RS-15 21 Apr 17:19:57 17:30:31 57° 248° (WSW) 17:41:25 29.354 - 29.394 USB, Beacon 29.352 USB
AO-7 21 Apr 17:36:54 17:44:54 52° 258° (WSW) 17:52:57 29.400 - 29.500 MHz
Hamsat 21 Apr 18:27:30 18:31:32 49° 74° (ENE) 18:35:39 145.90 MHz
Saudisat 1A 21 Apr 18:46:21 18:49:07 16° 44° (NE) 18:51:51 436.775 MHz
UOSAT-12 21 Apr 18:53:14 18:56:54 23° 313° (NW) 19:00:38 437.025 FM, 437.400 FM
STRAND 1 21 Apr 19:16:19 19:20:37 27° 96° (E) 19:24:53 ?
JAS-2 21 Apr 19:20:45 19:26:28 61° 74° (ENE) 19:31:42 435.800 - 435.900 CW/SSB, 435.910 FM
HO-68 21 Apr 19:38:01 19:40:25 12° 51° (NE) 19:42:49 435.675 MHz FM
ISS 21 Apr 19:39:13 19:40:41 12° 15° (NNE) 19:42:10 145.800 FM
SO-67 21 Apr 19:51:52 19:55:21 88° 78° (ENE) 19:58:52 435.3500 MHz FM
Hamsat 21 Apr 20:05:59 20:07:49 13° 269° (W) 20:09:39 145.90 MHz
Saudisat 1A 21 Apr 20:24:46 20:29:08 62° 242° (WSW) 20:33:26 436.775 MHz
STRAND 1 21 Apr 20:55:16 20:59:47 33° 291° (WNW) 21:04:18 ?
JAS-2 21 Apr 21:08:38 21:11:53 15° 267° (W) 21:14:59 435.800 - 435.900 CW/SSB, 435.910 FM
ISS 21 Apr 21:14:53 21:18:07 43° 33° (NNE) 21:21:20 145.800 FM
HO-68 21 Apr 21:19:44 21:26:46 66° 70° (ENE) 21:33:50 435.675 MHz FM
MaSat-1 21 Apr 21:21:05 21:23:57 47° 113° (ESE) 21:26:29 437.345 MHz
Oscar 11 21 Apr 21:47:01 21:50:55 35° 71° (ENE) 21:54:52 145.825 FM, Beacon 2401.500 USB
FUNcube-1 21 Apr 21:48:03 21:48:49 10° 64° (ENE) 21:49:35 145.950 - 145.970 MHz USB
ISS 21 Apr 22:52:10 22:54:38 19° 229° (SW) 22:57:05 145.800 FM
PCSat 21 Apr 23:08:09 23:09:55 12° 102° (ESE) 23:11:42 145.825 MHz
HO-68 21 Apr 23:09:43 23:14:56 22° 267° (W) 23:20:12 435.675 MHz FM
FUNcube-1 21 Apr 23:20:32 23:24:42 64° 259° (W) 23:28:51 145.950 - 145.970 MHz USB
Oscar 11 21 Apr 23:24:13 23:27:13 18° 266° (W) 23:30:14 145.825 FM, Beacon 2401.500 USB
SO-50 21 Apr 23:35:05 23:39:00 26° 49° (NE) 23:42:57 436.795 FM
Sapphire 22 Apr 00:03:05 00:08:01 37° 110° (ESE) 00:12:58 437.095 MHz 1200 baud AX-25 AFSK
PCSat 22 Apr 00:47:08 00:52:32 83° 298° (WNW) 00:58:00 145.825 MHz
SO-50 22 Apr 01:15:21 01:19:38 37° 245° (WSW) 01:23:58 436.795 FM
UOSAT-12 22 Apr 01:43:12 01:47:17 28° 49° (NE) 01:51:19 437.025 FM, 437.400 FM
Sapphire 22 Apr 01:46:45 01:51:28 30° 308° (NW) 01:56:14 437.095 MHz 1200 baud AX-25 AFSK
KITSAT 1 22 Apr 01:54:16 02:01:08 32° 106° (ESE) 02:08:00 435.175 FM
Oscar 19 22 Apr 02:02:45 02:06:44 22° 94° (E) 02:10:41 437.125 CW, 437.150 USB
ITAMSAT 1 22 Apr 02:06:19 02:07:38 11° 90° (E) 02:08:57 435.822 SSB
OPAL 22 Apr 02:10:17 02:14:13 23° 63° (ENE) 02:18:12 ?
Oscar 16 22 Apr 02:11:09 02:15:37 28° 96° (E) 02:20:03 437.025 USB, Beacon 2401.1428
PCSat 22 Apr 02:34:04 02:36:48 14° 317° (NW) 02:39:34 145.825 MHz
Uribyol 2 22 Apr 02:51:10 02:55:53 35° 98° (E) 03:00:35 436.500 FM
